Regional Weather Roundup
Issued by NWS Goodland, KS

Home | Current Version | Previous Version | Graphics & Text | Print | Product List | Glossary On
Versions: 1 2 3 4 5 6 7 8 9 10 11 12 13 14 15 16 17 18 19 20 21 22 23 24 25 26 27 28 29 30 31 32 33 34 35 36 37 38 39 40 41 42 43 44 45 46 47 48 49 50
000
ASUS43 KGLD 260408
RWRGLD

GOODLAND FORECAST AREA HOURLY WEATHER ROUNDUP
NATIONAL WEATHER SERVICE GOODLAND KS
900 PM MST THU DEC 25 2014

...OFFICIAL OBSERVATIONS...

CITY           SKY/WX    TMP DP  RH WIND       PRES   REMARKS
GOODLAND KS    CLOUDY    29  26  89 N16       29.75R WCI  17
HILL CITY KS   CLEAR     30  25  81 N21       29.72R WCI  17
IMPERIAL NEB   CLOUDY    28  24  85 N21       29.79R WCI  15
MCCOOK NEB     CLOUDY    31  26  82 N14       29.77R
AKRON CO       LGT SNOW  23  22  96 N20       29.78R FOG     WCI   8
BURLINGTON CO  CLOUDY    28  24  85 N18       29.75R WCI  15
LIMON CO       FRZ RAIN  25  23  92 N18       29.75R WCI  11
$$

...UNOFFICIAL OBSERVATIONS...

CITY           SKY/WX    TMP DP  RH WIND       PRES   REMARKS
COLBY KS       CLOUDY    30  28  93 NW16      29.75R WCI  19
NORTON KS      CLOUDY    30  25  80 N18G24    29.73R WCI  18
SHARON SPRINGS   N/A     30  26  86 N13G21      N/A  WCI  20
TRIBUNE KS     PTCLDY    30  30 100 N17G24    29.73R WCI  18
KIT CARSON CO    N/A     28  24  86 MISG        N/A
YUMA CO          N/A     26  23  87 NE14G24     N/A  WCI  14
$$



USA.gov is the U.S. government's official web portal to all federal, state and local government web resources and services.